Kezdőlap
METAR-TAF:

METAR-TAF

Repülőterek :

Muscatine, Iowa, Amerikai Egyesült Államok

földrajzi szélesség: 41-22N, földrajzi hosszúság: 091-09W, magasság: 167 m

Jelenlegi meteorológiai megfigyelések

A jelentés 24 perccel ezelõtt készült, 23:35 UTC
Déli szél 8 kt
Hőmérséklet 8°C
Páratartalom 53%
Légköri nyomás 1017 hPa
Látótávolság: 16.1 km
Derült ég

METAR: KMUT 222335Z AUTO 19008KT 10SM CLR 08/M01 A3004 RMK AO2

Idő: 17:59 (23:59 UTC)


TAF: hiányzik

Meteorológiai megfigyelések és előrejelzések több, mint 4000 repülőtéren (METAR és TAF jelentéseket).

A térképen piros és sárga pontok jelzik az elérhető meteorológiai állomásokat.

Mozgassa az egeret a pont fölött, hogy megjelenjen az állomás neve.

Azután kattintson az időjárási megfigyelések és előrejelzések megtekintéséhez.

A térkép megváltoztatása: kattintson a fekete keresztel jelölt zöld gombra ráközelítéshez, a vonallal jelölt zöld gombra távolításhoz, vagy a zöld nyilakra a szomszédos térképek eléréséhez.


METAR-TAF: